| time (UTC) | temp C | wind direction | speed KPH | gust KPH | rain 1hr cm | rain 24hr cm | rain mn cm | humidity % | barometer mb |
| 20260901110052 | 18 | 282 | 0.0 | 0.0 | 0.00 | 0.00 | 0.00 | 97 | 1011.1 |
| 20260901104550 | 18 | 282 | 0.0 | 0.0 | 0.00 | 0.00 | 0.00 | 97 | 1011.0 |
| 20260901103050 | 18 | 282 | 0.0 | 0.0 | 0.00 | 0.00 | 0.00 | 97 | 1010.9 |
| 20260901101649 | 18 | 282 | 0.0 | 0.0 | 0.00 | 0.00 | 0.00 | 97 | 1010.9 |
| 20260901100048 | 18 | 282 | 0.0 | 0.0 | 0.00 | 0.00 | 0.00 | 97 | 1010.8 |
| 20260901094546 | 18 | 282 | 0.0 | 0.0 | 0.00 | 0.00 | 0.00 | 97 | 1010.9 |
| 20260901093044 | 18 | 282 | 0.0 | 0.0 | 0.00 | 0.00 | 0.00 | 96 | 1010.7 |
| 20260901091542 | 19 | 282 | 0.0 | 0.0 | 0.00 | 0.00 | 0.00 | 96 | 1010.7 |
| 20260901090041 | 19 | 282 | 0.0 | 0.0 | 0.00 | 0.00 | 0.00 | 97 | 1010.7 |
| 20260901084540 | 19 | 282 | 0.0 | 0.0 | 0.00 | 0.00 | 0.00 | 97 | 1010.6 |
| 20260901083040 | 19 | 282 | 0.0 | 0.0 | 0.00 | 0.00 | 0.00 | 96 | 1010.5 |
| 20260901081543 | 19 | 282 | 0.0 | 0.0 | 0.00 | 0.00 | 0.00 | 96 | 1010.6 |
| 20260901080046 | 20 | 282 | 0.0 | 0.0 | 0.00 | 0.00 | 0.00 | 96 | 1010.4 |
| 20260901074544 | 20 | 282 | 0.0 | 0.0 | 0.00 | 0.00 | 0.00 | 96 | 1010.4 |
| 20260901073038 | 20 | 282 | 0.0 | 0.0 | 0.00 | 0.00 | 0.00 | 96 | 1010.5 |
| 20260901071533 | 20 | 282 | 0.0 | 0.0 | 0.00 | 0.00 | 0.00 | 96 | 1010.5 |
| 20260901070035 | 20 | 282 | 0.0 | 0.0 | 0.00 | 0.00 | 0.00 | 96 | 1010.7 |
| 20260901064532 | 20 | 282 | 0.0 | 0.0 | 0.00 | 0.00 | 0.00 | 95 | 1010.6 |
| 20260901063032 | 20 | 282 | 0.0 | 0.0 | 0.00 | 0.00 | 0.00 | 95 | 1010.5 |
| 20260901061529 | 20 | 282 | 0.0 | 0.0 | 0.00 | 0.00 | 0.00 | 95 | 1010.7 |
| 20260901060028 | 20 | 282 | 0.0 | 0.0 | 0.00 | 0.00 | 0.00 | 95 | 1010.7 |
| 20260901054528 | 20 | 282 | 0.0 | 0.0 | 0.00 | 0.00 | 0.00 | 95 | 1010.7 |
| 20260901053027 | 21 | 282 | 0.0 | 0.0 | 0.00 | 0.00 | 0.00 | 95 | 1010.6 |
| 20260901051533 | 21 | 282 | 0.0 | 0.0 | 0.00 | 0.00 | 0.00 | 94 | 1010.6 |
| 20260901050023 | 21 | 282 | 0.0 | 0.0 | 0.00 | 0.00 | 0.00 | 93 | 1010.5 |
| 20260901044523 | 22 | 282 | 0.0 | 0.0 | 0.00 | 0.00 | 0.00 | 92 | 1010.6 |
| 20260901043018 | 22 | 282 | 0.0 | 0.0 | 0.00 | 0.00 | 0.00 | 90 | 1010.7 |
| 20260901041538 | 22 | 282 | 0.0 | 0.0 | 0.00 | 0.00 | 0.00 | 89 | 1010.7 |
| 20260901040019 | 22 | 282 | 3.2 | 0.0 | 0.00 | 0.00 | 0.00 | 88 | 1010.8 |
| 20260901034513 | 22 | 283 | 3.2 | 0.0 | 0.00 | 0.00 | 1.24 | 88 | 1010.6 |
| 20260901033013 | 22 | 285 | 1.6 | 0.0 | 0.00 | 0.00 | 1.24 | 87 | 1010.5 |
| 20260901031513 | 22 | 278 | 3.2 | 0.0 | 0.00 | 0.00 | 1.24 | 88 | 1010.6 |
| 20260901030012 | 22 | 272 | 0.0 | 0.0 | 0.00 | 0.00 | 1.24 | 90 | 1010.6 |
| 20260901024512 | 22 | 284 | 0.0 | 0.0 | 0.00 | 0.00 | 1.24 | 92 | 1010.6 |
| 20260901023011 | 21 | 294 | 0.0 | 0.0 | 0.00 | 0.00 | 1.24 | 93 | 1010.8 |
| 20260901021516 | 21 | 294 | 0.0 | 0.0 | 0.00 | 0.00 | 1.24 | 94 | 1010.6 |
| 20260901020011 | 22 | 294 | 0.0 | 0.0 | 0.00 | 0.00 | 1.24 | 94 | 1010.5 |
| 20260901014525 | 22 | 295 | 0.0 | 0.0 | 0.00 | 0.00 | 1.24 | 92 | 1010.5 |
| 20260901013010 | 22 | 294 | 0.0 | 0.0 | 0.00 | 0.00 | 1.24 | 93 | 1010.5 |
| 20260901011512 | 22 | 294 | 0.0 | 0.0 | 0.00 | 0.00 | 1.24 | 92 | 1010.1 |
| 20260901010009 | 22 | 294 | 0.0 | 0.0 | 0.00 | 0.00 | 1.24 | 92 | 1010.0 |
| 20260901004508 | 23 | 294 | 0.0 | 0.0 | 0.00 | 0.00 | 1.24 | 91 | 1009.9 |
| 20260901003008 | 23 | 295 | 1.6 | 0.0 | 0.00 | 0.00 | 1.24 | 89 | 1009.9 |
| 20260901001507 | 23 | 285 | 1.6 | 0.0 | 0.00 | 0.00 | 1.24 | 84 | 1009.7 |
| 20260901000008 | 23 | 280 | 1.6 | 0.0 | 0.00 | 0.00 | 1.24 | 89 | 1009.7 |
| 20260831234508 | 24 | 280 | 3.2 | 0.0 | 0.00 | 0.00 | 1.24 | 86 | 1009.9 |
| 20260831233006 | 25 | 278 | 3.2 | 0.0 | 0.00 | 0.00 | 1.24 | 84 | 1009.5 |
| 20260831231506 | 25 | 258 | 0.0 | 0.0 | 0.00 | 0.00 | 1.24 | 80 | 1009.4 |
| 20260831230005 | 26 | 249 | 1.6 | 0.0 | 0.00 | 0.00 | 1.24 | 79 | 1009.4 |
| 20260831224504 | 26 | 234 | 3.2 | 0.0 | 0.00 | 0.00 | 1.24 | 73 | 1009.2 |
| 20260831223004 | 27 | 309 | 4.8 | 0.0 | 0.00 | 0.00 | 1.24 | 73 | 1009.3 |
| 20260831221504 | 27 | 281 | 4.8 | 0.0 | 0.00 | 0.00 | 1.24 | 73 | 1009.2 |
| 20260831220002 | 27 | 245 | 1.6 | 0.0 | 0.00 | 0.00 | 1.24 | 82 | 1009.2 |
| 20260831214607 | 26 | 275 | 0.0 | 0.0 | 0.00 | 0.00 | 1.24 | 78 | 1009.1 |
| 20260831214502 | 26 | 237 | 0.0 | 0.0 | 0.00 | 0.00 | 1.24 | 78 | 1009.1 |
| 20260831213058 | 26 | 234 | 0.0 | 0.0 | 0.00 | 0.00 | 1.24 | 80 | 1009.2 |
| 20260831211558 | 26 | 297 | 1.6 | 0.0 | 0.00 | 0.00 | 1.24 | 78 | 1009.2 |
| 20260831210057 | 26 | 246 | 3.2 | 0.0 | 0.00 | 0.00 | 1.24 | 76 | 1009.2 |
| 20260831204600 | 26 | 275 | 1.6 | 0.0 | 0.00 | 0.00 | 1.24 | 78 | 1009.2 |
| 20260831203052 | 26 | 278 | 1.6 | 0.0 | 0.00 | 0.00 | 1.24 | 81 | 1009.3 |
| 20260831201551 | 26 | 216 | 3.2 | 0.0 | 0.00 | 0.00 | 1.24 | 80 | 1009.6 |
| 20260831200049 | 26 | 257 | 3.2 | 0.0 | 0.00 | 0.00 | 1.24 | 79 | 1009.7 |
| 20260831194547 | 26 | 223 | 3.2 | 0.0 | 0.00 | 0.00 | 1.24 | 81 | 1010.0 |
| 20260831193044 | 25 | 190 | 4.8 | 0.0 | 0.00 | 0.00 | 1.24 | 80 | 1010.2 |
| 20260831191544 | 25 | 265 | 4.8 | 0.0 | 0.00 | 0.00 | 1.24 | 78 | 1010.3 |
| 20260831190043 | 26 | 198 | 4.8 | 0.0 | 0.00 | 0.00 | 1.24 | 79 | 1010.4 |
| 20260831184540 | 25 | 259 | 6.4 | 0.0 | 0.00 | 0.00 | 1.24 | 80 | 1010.5 |
| 20260831183038 | 25 | 341 | 8.0 | 0.0 | 0.00 | 0.00 | 1.24 | 80 | 1010.8 |
| 20260831181542 | 25 | 262 | 3.2 | 0.0 | 0.00 | 0.00 | 1.24 | 79 | 1010.7 |
| 20260831180036 | 24 | 245 | 4.8 | 0.0 | 0.00 | 0.00 | 1.24 | 80 | 1010.7 |
| 20260831174534 | 25 | 155 | 4.8 | 0.0 | 0.00 | 0.00 | 1.24 | 80 | 1010.8 |
| 20260831173032 | 24 | 284 | 4.8 | 0.0 | 0.00 | 0.00 | 1.24 | 84 | 1010.7 |
| 20260831171529 | 23 | 97 | 4.8 | 0.0 | 0.00 | 0.00 | 1.24 | 86 | 1010.8 |
| 20260831170030 | 23 | 120 | 4.8 | 0.0 | 0.00 | 0.00 | 1.24 | 88 | 1011.1 |
| 20260831164525 | 22 | 91 | 4.8 | 0.0 | 0.00 | 0.00 | 1.24 | 91 | 1011.3 |
| 20260831163021 | 21 | 128 | 4.8 | 0.0 | 0.00 | 0.00 | 1.24 | 92 | 1011.4 |
| 20260831161518 | 21 | 169 | 3.2 | 0.0 | 0.00 | 0.00 | 1.24 | 96 | 1011.5 |
| 20260831160013 | 20 | 186 | 3.2 | 0.0 | 0.00 | 0.00 | 1.24 | 96 | 1011.5 |
| 20260831154510 | 20 | 192 | 3.2 | 0.0 | 0.00 | 0.00 | 1.24 | 98 | 1012.1 |
| 20260831153007 | 19 | 171 | 3.2 | 0.0 | 0.00 | 0.00 | 1.24 | 98 | 1012.3 |
| 20260831151512 | 19 | 196 | 1.6 | 0.0 | 0.00 | 0.00 | 1.09 | 98 | 1013.4 |
| 20260831150007 | 19 | 150 | 1.6 | 0.0 | 0.00 | 0.00 | 1.02 | 98 | 1013.2 |
| 20260831144505 | 19 | 150 | 1.6 | 0.0 | 0.00 | 0.00 | 0.97 | 98 | 1013.6 |
| 20260831143005 | 19 | 256 | 1.6 | 0.0 | 0.00 | 0.00 | 0.89 | 98 | 1013.4 |
| 20260831141504 | 19 | 75 | 1.6 | 0.0 | 0.00 | 0.00 | 0.79 | 98 | 1013.5 |
| 20260831140006 | 19 | 113 | 1.6 | 0.0 | 0.00 | 0.00 | 0.71 | 98 | 1013.3 |
| 20260831134503 | 19 | 155 | 1.6 | 0.0 | 0.00 | 0.00 | 0.71 | 98 | 1014.0 |
| 20260831133001 | 19 | 253 | 1.6 | 0.0 | 0.00 | 0.00 | 0.64 | 98 | 1014.1 |
| 20260831131501 | 19 | 256 | 1.6 | 0.0 | 0.00 | 0.00 | 0.58 | 98 | 1014.2 |
| 20260831130001 | 19 | 248 | 3.2 | 0.0 | 0.00 | 0.00 | 0.51 | 98 | 1014.2 |
| 20260831124605 | 19 | 270 | 3.2 | 0.0 | 0.00 | 0.00 | 0.43 | 98 | 1013.7 |
| 20260831123059 | 19 | 295 | 1.6 | 0.0 | 0.00 | 0.00 | 0.38 | 98 | 1013.1 |
| 20260831121608 | 19 | 359 | 1.6 | 0.0 | 0.00 | 0.00 | 0.36 | 98 | 1012.5 |
| 20260831120057 | 19 | 108 | 3.2 | 0.0 | 0.00 | 0.00 | 0.36 | 98 | 1011.9 |
| 20260831114555 | 19 | 77 | 1.6 | 0.0 | 0.00 | 0.00 | 0.36 | 98 | 1012.2 |
| 20260831113055 | 18 | 85 | 3.2 | 0.0 | 0.00 | 0.00 | 0.36 | 98 | 1012.1 |
| 20260831111557 | 19 | 100 | 3.2 | 0.0 | 0.00 | 0.00 | 0.36 | 98 | 1012.1 |